Alpine, TX

12:52 AM CDT on July 22, 2017 (GMT -0500)
Alpine

Weather History for KE38 - November, 2012

Change the Weather History Date:

Friday, November 2, 2012

  Actual Average (KMRF) Record (KMRF)
Temperature  
Mean Temperature 64 °F -  
Max Temperature 78 °F 67 °F 78 °F (2001)
Min Temperature 50 °F 38 °F 28 °F (2013)
Degree Days  
Heating Degree Days 1    
Growing Degree Days 14 (Base 50)    
Moisture  
Dew Point 36 °F    
Average Humidity 40    
Maximum Humidity 68    
Minimum Humidity 17    
Precipitation  
Precipitation 0.00 in - - ()
Sea Level Pressure  
Sea Level Pressure 30.11 in    
Wind  
Wind Speed 5 mph (SSW)    
Max Wind Speed 9 mph    
Max Gust Speed 17 mph    
Visibility 10 miles    
Events      
Averages and records for this station are not official NWS values.
T = Trace of Precipitation, MM = Missing Value Source: NWS Daily Summary

Daily Weather History Graph

Daily Weather History Graph

Search for Another Location

Airport or City:

Trip Planner

Search our weather history database for the weather conditions in past years. The results will help you decide how hot, cold, wet, or windy it might be!

Date:

Astronomy

Nov. 02, 2012 Rise Set
Actual Time 8:10 AM CDT 7:05 PM CDT
Civil Twilight 7:45 AM CDT 7:30 PM CDT
Nautical Twilight 7:16 AM CDT 7:59 PM CDT
Astronomical Twilight 6:48 AM CDT 8:27 PM CDT
Moon 10:03 PM CDT (11/2) 11:24 AM CDT (11/2)
Length of Visible Light 11h 45m
Length of Day
10h 55m
Waning Gibbous, 87% of the Moon is Illuminated
Nov 2
Waning Gibbous
Nov 6
Last Quarter
Nov 13
New
Nov 20
First Quarter
Nov 28
Full

Hourly Weather History & Observations

Time (CDT) Temp. Dew Point Humidity Pressure Visibility Wind Dir Wind Speed Gust Speed Precip Events Conditions
12:15 AM 58.6 °F 43.9 °F 58% 30.15 in 10.0 mi South 6.9 mph - N/A   Clear
12:35 AM 58.3 °F 44.8 °F 61% 30.15 in 10.0 mi SSW 5.8 mph - N/A   Clear
12:55 AM 59.5 °F 45.1 °F 59% 30.15 in 10.0 mi SW 3.5 mph - N/A   Clear
1:15 AM 60.3 °F 44.2 °F 55% 30.15 in 10.0 mi SW 6.9 mph - N/A   Clear
1:35 AM 56.8 °F 42.4 °F 59% 30.15 in 10.0 mi SSW 3.5 mph - N/A   Clear
1:55 AM 53.6 °F 40.1 °F 60% 30.15 in 10.0 mi Calm Calm - N/A   Clear
2:15 AM 52.7 °F 39.9 °F 62% 30.14 in 10.0 mi WSW 5.8 mph - N/A   Clear
2:35 AM 50.9 °F 39.7 °F 66% 30.14 in 10.0 mi West 8.1 mph - N/A   Clear
2:55 AM 50.5 °F 39.9 °F 67% 30.14 in 10.0 mi South 3.5 mph - N/A   Clear
3:15 AM 52.9 °F 42.1 °F 67% 30.13 in 10.0 mi SW 4.6 mph - N/A   Clear
3:35 AM 52.9 °F 42.4 °F 68% 30.13 in 10.0 mi SW 6.9 mph - N/A   Clear
3:55 AM 52.5 °F 42.3 °F 68% 30.13 in 10.0 mi SW 5.8 mph - N/A   Clear
4:15 AM 51.8 °F 41.5 °F 68% 30.12 in 10.0 mi SW 8.1 mph - N/A   Clear
4:35 AM 52.7 °F 41.9 °F 67% 30.12 in 10.0 mi SW 5.8 mph - N/A   Clear
4:55 AM 52.7 °F 41.7 °F 66% 30.12 in 10.0 mi WSW 6.9 mph - N/A   Clear
5:15 AM 54.0 °F 41.7 °F 63% 30.12 in 10.0 mi WSW 6.9 mph - N/A   Clear
5:35 AM 52.5 °F 40.8 °F 64% 30.12 in 10.0 mi WSW 6.9 mph - N/A   Clear
5:55 AM 55.4 °F 40.1 °F 56% 30.12 in 10.0 mi SW 4.6 mph - N/A   Clear
6:15 AM 57.7 °F 40.3 °F 52% 30.12 in 10.0 mi WSW 6.9 mph - N/A   Clear
6:35 AM 55.2 °F 40.1 °F 57% 30.12 in 10.0 mi WSW 8.1 mph - N/A   Clear
6:55 AM 55.8 °F 39.7 °F 55% 30.12 in 10.0 mi WSW 5.8 mph - N/A   Clear
7:15 AM 55.9 °F 39.6 °F 54% 30.12 in 10.0 mi SW 6.9 mph - N/A   Clear
7:35 AM 55.2 °F 39.4 °F 55% 30.13 in 10.0 mi WSW 8.1 mph - N/A   Clear
7:55 AM 56.5 °F 39.7 °F 54% 30.13 in 10.0 mi WSW 8.1 mph - N/A   Clear
8:15 AM 57.4 °F 39.9 °F 52% 30.14 in 10.0 mi WSW 8.1 mph - N/A   Clear
8:35 AM 58.6 °F 39.6 °F 49% 30.14 in 10.0 mi WSW 8.1 mph - N/A   Clear
8:55 AM 60.1 °F 39.2 °F 46% 30.15 in 10.0 mi Calm Calm - N/A   Clear
9:15 AM 59.2 °F 40.3 °F 50% 30.15 in 10.0 mi Calm Calm - N/A   Clear
9:35 AM 62.2 °F 41.0 °F 46% 30.16 in 10.0 mi Calm Calm - N/A   Clear
9:55 AM 65.7 °F 39.9 °F 39% 30.16 in 10.0 mi Calm Calm - N/A   Clear
10:15 AM 68.2 °F 38.7 °F 34% 30.16 in 10.0 mi SSW 5.8 mph - N/A   Clear
10:35 AM 70.2 °F 37.9 °F 31% 30.16 in 10.0 mi SSW 4.6 mph - N/A   Clear
10:55 AM 72.0 °F 37.8 °F 29% 30.16 in 10.0 mi SSE 3.5 mph - N/A   Clear
11:15 AM 73.2 °F 38.5 °F 28% 30.16 in 10.0 mi SSE 3.5 mph - N/A   Clear
11:35 AM 74.5 °F 37.9 °F 27% 30.16 in 10.0 mi Calm Calm - N/A   Clear
12:15 PM 77.7 °F 32.9 °F 20% 30.15 in 10.0 mi WSW 6.9 mph - N/A   Clear
12:35 PM 76.8 °F 28.8 °F 17% 30.15 in 10.0 mi Calm Calm - N/A   Scattered Clouds
12:55 PM 76.6 °F 30.0 °F 18% 30.13 in 10.0 mi SSE 4.6 mph - N/A   Scattered Clouds
1:15 PM 77.5 °F 29.7 °F 17% 30.13 in 10.0 mi East 3.5 mph - N/A   Scattered Clouds
1:35 PM 77.7 °F 30.2 °F 18% 30.12 in 10.0 mi South 8.1 mph - N/A   Mostly Cloudy
1:55 PM 76.3 °F 29.7 °F 18% 30.11 in 10.0 mi South 4.6 mph - N/A   Scattered Clouds
2:15 PM 75.9 °F 28.6 °F 17% 30.11 in 10.0 mi SSW 4.6 mph - N/A   Scattered Clouds
2:35 PM 77.2 °F 31.1 °F 19% 30.09 in 10.0 mi West 4.6 mph - N/A   Scattered Clouds
2:55 PM 78.1 °F 31.1 °F 18% 30.08 in 10.0 mi SSE 5.8 mph - N/A   Clear
3:15 PM 76.5 °F 32.2 °F 20% 30.08 in 10.0 mi South 6.9 mph - N/A   Clear
3:35 PM 76.1 °F 33.1 °F 21% 30.07 in 10.0 mi SE 5.8 mph - N/A   Scattered Clouds
3:55 PM 76.8 °F 33.4 °F 21% 30.07 in 10.0 mi South 5.8 mph - N/A   Scattered Clouds
4:15 PM 77.0 °F 32.4 °F 20% 30.06 in 10.0 mi WSW 4.6 mph - N/A   Clear
4:35 PM 77.9 °F 32.0 °F 19% 30.06 in 10.0 mi South 3.5 mph - N/A   Clear
4:55 PM 78.6 °F 32.0 °F 18% 30.05 in 10.0 mi SW 8.1 mph 17.3 mph N/A   Mostly Cloudy
5:15 PM 78.4 °F 31.5 °F 18% 30.05 in 10.0 mi South 4.6 mph - N/A   Mostly Cloudy
5:35 PM 78.4 °F 31.8 °F 18% 30.05 in 7.0 mi SSE 6.9 mph - N/A   Mostly Cloudy
5:55 PM 77.9 °F 31.8 °F 19% 30.05 in 7.0 mi South 5.8 mph - N/A   Scattered Clouds
6:15 PM 77.0 °F 31.3 °F 19% 30.05 in 7.0 mi SW 6.9 mph - N/A   Mostly Cloudy
6:35 PM 76.8 °F 31.8 °F 19% 30.06 in 10.0 mi SSW 5.8 mph - N/A   Mostly Cloudy
6:55 PM 75.0 °F 32.0 °F 21% 30.06 in 5.0 mi SSW 5.8 mph - N/A   Scattered Clouds
7:15 PM 70.5 °F 32.2 °F 24% 30.07 in 10.0 mi SSW 8.1 mph - N/A   Scattered Clouds
7:35 PM 65.8 °F 32.2 °F 29% 30.07 in 10.0 mi SW 9.2 mph - N/A   Clear
7:55 PM 64.2 °F 32.0 °F 30% 30.08 in 7.0 mi South 6.9 mph - N/A   Clear
8:15 PM 61.2 °F 32.4 °F 34% 30.08 in 10.0 mi SSW 8.1 mph - N/A   Scattered Clouds
8:35 PM 61.9 °F 32.9 °F 34% 30.08 in 10.0 mi SSW 8.1 mph - N/A   Scattered Clouds
8:55 PM 61.5 °F 33.3 °F 35% 30.09 in 10.0 mi Calm Calm - N/A   Clear
9:15 PM 61.2 °F 32.9 °F 35% 30.09 in 10.0 mi Calm Calm - N/A   Clear
9:35 PM 64.4 °F 32.7 °F 31% 30.09 in 10.0 mi Calm Calm - N/A   Clear
9:55 PM 62.8 °F 32.5 °F 32% 30.10 in 7.0 mi Calm Calm - N/A   Clear
10:15 PM 59.9 °F 32.7 °F 36% 30.11 in 10.0 mi East 4.6 mph - N/A   Clear
10:35 PM 63.1 °F 32.5 °F 32% 30.11 in 10.0 mi Calm Calm - N/A   Clear
10:55 PM 54.5 °F 32.9 °F 44% 30.11 in 10.0 mi West 4.6 mph - N/A   Clear
11:15 PM 54.0 °F 34.0 °F 47% 30.12 in 10.0 mi Calm Calm - N/A   Clear
11:35 PM 57.2 °F 36.5 °F 46% 30.11 in 10.0 mi Calm Calm - N/A   Clear
11:55 PM 55.9 °F 36.0 °F 47% 30.11 in 10.0 mi Calm Calm - N/A   Clear